Weather History for Watsonville, CA

Change the Weather History Date:

Monday, November 12, 2012

  Actual Average Record
Temperature  
Mean Temperature 51 °F 56 °F  
Max Temperature 66 °F 67 °F 78 °F (1999)
Min Temperature 36 °F 44 °F 34 °F (2000)
Degree Days  
Heating Degree Days 14    
Month to date heating degree days 100  
Since 1 July heating degree days 588  
Cooling Degree Days 0    
Month to date cooling degree days 11  
Year to date cooling degree days 79  
Moisture  
Dew Point 36 °F    
Average Humidity 57    
Maximum Humidity 85    
Minimum Humidity 28    
Precipitation  
Precipitation 0.00 in - 1.17 in (2001)
Month to date precipitation 0.41  
Year to date precipitation 12.79  
Since 1 July precipitation 0.86  
Sea Level Pressure  
Sea Level Pressure 30.31 in    
Wind  
Wind Speed 3 mph (WNW)    
Max Wind Speed 12 mph    
Max Gust Speed 14 mph    
Visibility 10 miles    
Events      
T = Trace of Precipitation, MM = Missing Value Source: NWS Daily Summary

Daily Weather History Graph

Daily Weather History Graph

Search for Another Location

Airport:

Trip Planner

Search our weather history database for the weather conditions in past years. The results will help you decide how hot, cold, wet, or windy it might be!

Date:

Astronomy

Nov. 12, 2012 Rise Set
Actual Time 6:43 AM PST 4:59 PM PST
Civil Twilight 6:15 AM PST 5:26 PM PST
Nautical Twilight 5:44 AM PST 5:58 PM PST
Astronomical Twilight 5:13 AM PST 6:28 PM PST
Moon 5:16 AM PST (11/12) 4:07 PM PST (11/12)
Length of Visible Light 11h 11m
Length of Day
10h 16m
Waning Crescent, 2% of the Moon is Illuminated
Nov 12
Waning Crescent
Nov 13
New
Nov 20
First Quarter
Nov 28
Full
Dec 6
Last Quarter

Hourly Weather History & Observations

Time (PST) Temp. Windchill Dew Point Humidity Pressure Visibility Wind Dir Wind Speed Gust Speed Precip Events Conditions
12:53 AM 42.1 °F 40.2 °F 35.1 °F 76% 30.37 in 10.0 mi NW 3.5 mph - N/A   Clear
1:53 AM 41.0 °F - 35.1 °F 79% 30.37 in 10.0 mi Calm Calm - N/A   Clear
2:53 AM 37.9 °F - 33.1 °F 83% 30.37 in 10.0 mi Calm Calm - N/A   Clear
3:53 AM 39.0 °F 36.8 °F 34.0 °F 82% 30.37 in 10.0 mi NW 3.5 mph - N/A   Clear
4:53 AM 39.0 °F 36.8 °F 33.1 °F 79% 30.37 in 10.0 mi NW 3.5 mph - N/A   Clear
5:53 AM 39.9 °F - 32.0 °F 73% 30.36 in 10.0 mi Calm Calm - N/A   Clear
6:53 AM 37.0 °F - 32.0 °F 82% 30.36 in 10.0 mi Calm Calm - N/A   Clear
7:53 AM 43.0 °F - 35.1 °F 74% 30.37 in 10.0 mi Calm Calm - N/A   Clear
8:53 AM 48.9 °F - 35.1 °F 59% 30.37 in 10.0 mi Calm Calm - N/A   Clear
9:53 AM 55.9 °F - 34.0 °F 44% 30.37 in 10.0 mi East 3.5 mph - N/A   Clear
10:53 AM 60.1 °F - 32.0 °F 35% 30.34 in 10.0 mi East 5.8 mph - N/A   Clear
11:53 AM 64.0 °F - 30.0 °F 28% 30.31 in 10.0 mi Variable 4.6 mph - N/A   Clear
12:53 PM 64.9 °F - 32.0 °F 29% 30.28 in 10.0 mi SW 5.8 mph - N/A   Clear
1:53 PM 62.1 °F - 37.0 °F 39% 30.26 in 10.0 mi West 9.2 mph - N/A   Clear
2:53 PM 63.0 °F - 41.0 °F 45% 30.25 in 10.0 mi SW 6.9 mph - N/A   Clear
3:53 PM 61.0 °F - 42.1 °F 50% 30.24 in 10.0 mi WSW 4.6 mph - N/A   Clear
4:53 PM 57.0 °F - 42.1 °F 57% 30.23 in 10.0 mi Calm Calm - N/A   Clear
5:53 PM 54.0 °F - 43.0 °F 66% 30.23 in 10.0 mi Calm Calm - N/A   Clear
6:53 PM 52.0 °F - 39.9 °F 63% 30.25 in 10.0 mi NW 4.6 mph - N/A   Clear
7:53 PM 48.9 °F - 37.0 °F 64% 30.26 in 10.0 mi NNW 5.8 mph - N/A   Clear
8:53 PM 48.0 °F - 37.0 °F 66% 30.26 in 10.0 mi NW 3.5 mph - N/A   Clear
9:53 PM 46.9 °F - 37.0 °F 68% 30.26 in 10.0 mi WNW 3.5 mph - N/A   Clear
10:53 PM 46.0 °F 44.8 °F 37.0 °F 71% 30.27 in 10.0 mi NW 3.5 mph - N/A   Clear
11:53 PM 45.0 °F - 36.0 °F 71% 30.25 in 10.0 mi Calm Calm - N/A   Clear